Погода в Ньюкасле-апон-Тайн

Великобритания     54°58′19″N   1°37′20″W
темп.,
°C
ветер,
м/с
пор.,
м/с
влажн.,
%
обл.,
%
осадки,
мм/ч
давл.,
гПа
погр.,
м
15 апреля, чт
чт1501:00+3з117516 0.0 103662
04:00+2з11825 0.0 103626
07:00+2з11805 0.0 103642
10:00+7вюв11510 0.0 1036515
13:00+9в32410 0.0 10351017
16:00+8в33420 0.0 1035804
19:00+7вюв23482 0.0 1034358
22:00+5ююв1265100 0.0 103466
16 апреля, пт
пт1601:00+4ююз22715 0.0 103450
04:00+2ююз11725 0.0 103327
07:00+2ююз12689 0.0 103354
10:00+8ю23492 0.0 1033593
13:00+10вюв32422 0.0 10311228
16:00+10вюв44515 0.0 1031746
19:00+8юв456018 0.0 1031350
22:00+6ююв2374100 0.0 103186
17 апреля, сб
сб1701:00+5ююз257496 0.0 1031170
04:00+3ю247575 0.0 1030114
07:00+4ююз237791 0.0 1030100
10:00+8ююв235899 0.0 1030481
13:00+11юв3447100 0.0 10281140
16:00+11юв554879 0.0 1026975
19:00+8юв475987 0.0 1026284
22:00+8ю4961100 0.0 1026359
18 апреля, вс
вс1801:00+6ю4966100 0.0 1025287
04:00+6ююз3669100 0.0 1023196
07:00+7ююз3874100 0.0 1023423
10:00+7ю3772100 0.1 1023462
13:00+7ююз3879100 0.4 1023452
16:00+8ю3680100 0.3 1022400
19:00+8ю2582100 0.4 1022210
22:00+7ю248398 0.1 1022129
19 апреля, пн
пн1901:00+7ю2584100 0.1 1021156
04:00+7ю3681100 0.0 1020194
07:00+7ю3680100 0.0 1019217
10:00+8ю3782100 0.2 1019259
13:00+9ю4773100 0.3 1019516
16:00+11ююв467099 0.0 1017507
19:00+11ююв3770100 0.1 1017357
22:00+9ююз1177100 0.1 101721